Vorticity
9 9 10 7 13 13 12 12 53 1 -21 13 19 -3 3 18 5 3 2 15 22 16 18 -1 3 5 8 2 13 5 18 8 12 13 -8 5 -7 4
21 11 14 8 3 -12 5 2 2 3 -16 2 11 7 11 10 14 11 5 3 11 23 20 16 14 8 -2 5 8 14 10 8 7 1 -4 4 13 10
11 12 11 9 11 3 11 37 22 -11 6 -64 15 12 11 12 15 14 35 3 15 2 13 11 8 10 7 9 3 3 4 9 8 10 11 12 9 9
15 15 13 14 15 11 9 -4 -2 16 10 17 8 10 8 12 2 12 -6 3 15 -2 11 10 6 7 7 4 4 8 8 8 7 5 5 5 6 5
15 11 12 14 12 14 11 13 8 10 14 14 4 -5 22 10 3 12 14 13 11 9 8 11 10 10 6 5 5 4 4 3 2 2 2 4 10 15
26 18 19 19 19 12 14 16 12 14 9 7 12 10 -1 -1 10 16 23 20 13 6 4 5 4 4 3 2 3 4 7 13 22 30 46 53 49 41
21 17 15 12 14 13 15 13 11 9 11 5 -10 12 27 28 16 7 7 6 3 3 5 6 5 9 15 21 26 30 41 51 46 36 20 11 13 10
21 2 12 12 11 17 5 4 3 -6 15 11 23 18 7 8 9 9 8 8 9 11 14 27 29 40 42 44 31 25 27 18 11 13 13 11 15 13
8 4 5 13 13 11 -15 19 21 9 12 7 8 7 4 4 10 12 15 21 31 36 37 32 24 15 12 15 20 14 10 12 11 10 13 18 23 21
12 6 6 10 14 17 29 19 8 4 4 3 11 1 8 16 23 32 32 20 14 15 18 24 24 24 16 10 15 9 7 7 15 20 18 14 22 15
19 21 20 19 15 9 6 4 4 4 5 4 3 1 13 33 25 13 15 24 30 19 15 12 19 24 18 9 5 6 10 16 15 8 8 10 15 19
8 8 6 5 5 6 6 3 2 5 5 8 10 16 25 19 11 9 26 22 8 15 21 13 12 6 11 9 6 5 14 10 8 8 10 13 14 7
6 5 4 6 7 5 9 2 3 5 7 5 13 28 21 8 10 4 22 23 14 14 15 8 8 12 11 12 11 14 12 8 8 14 17 14 13 12
6 6 8 7 8 2 8 6 2 7 11 9 27 25 7 13 7 5 3 22 22 15 14 11 10 14 14 17 15 9 9 13 15 15 12 8 8 13
6 5 8 9 7 8 9 11 2 6 10 22 25 13 14 7 5 5 4 5 21 19 12 10 15 15 14 11 8 9 17 16 13 13 11 8 12 18
8 7 9 9 8 10 8 10 4 3 16 25 14 10 6 6 4 6 8 4 10 17 17 11 13 14 13 8 9 13 18 16 15 15 18 19 24 20
9 8 10 10 8 7 9 12 1 7 22 20 10 12 13 11 11 11 11 7 4 12 16 13 12 15 11 9 10 8 15 12 14 18 24 18 15 14
10 8 11 11 11 9 8 8 12 15 22 13 9 13 14 13 13 14 14 10 5 6 13 14 14 14 13 9 7 7 11 13 18 18 14 16 13 11
10 11 10 12 11 6 8 4 15 21 17 10 10 12 11 11 10 9 10 11 9 5 8 12 13 17 15 16 9 6 11 17 24 16 20 18 15 12
10 11 11 10 12 8 10 7 16 23 15 8 8 11 13 11 11 8 6 8 12 7 6 7 10 15 15 12 13 8 7 21 25 16 12 10 12 12
10 10 11 8 11 5 5 5 25 25 16 6 6 13 15 9 8 13 14 11 12 8 6 5 5 13 14 15 10 10 10 18 24 14 6 10 10 7
10 9 12 8 8 7 5 7 28 28 18 7 4 18 5 8 15 14 20 20 10 9 7 5 3 7 21 13 9 9 16 25 14 10 5 5 3 17
10 9 11 8 9 6 3 9 31 29 18 6 8 12 -4 6 12 14 25 21 11 9 7 5 5 9 20 12 8 9 20 28 12 10 3 1 -2 4
Height
5699 5700 5702 5702 5703 5705 5706 5703 5699 5695 5697 5694 5692 5688 5686 5685 5682 5676 5676 5672 5670 5667 5665 5661 5660 5659 5657 5654 5653 5652 5650 5649 5647 5645 5644 5643 5642 5640
5683 5684 5685 5687 5689 5692 5679 5690 5691 5685 5680 5680 5678 5676 5674 5670 5666 5662 5660 5657 5654 5652 5647 5644 5643 5641 5639 5638 5635 5632 5631 5629 5626 5624 5622 5620 5616 5614
5667 5669 5670 5671 5674 5677 5678 5678 5674 5674 5670 5662 5663 5661 5657 5653 5650 5647 5644 5641 5637 5635 5630 5627 5625 5622 5621 5617 5614 5611 5609 5607 5603 5600 5597 5594 5591 5588
5649 5651 5653 5655 5657 5660 5663 5662 5657 5657 5655 5653 5650 5647 5642 5637 5635 5631 5627 5623 5621 5617 5611 5608 5606 5603 5600 5597 5593 5590 5586 5582 5578 5575 5571 5568 5563 5559
5632 5635 5638 5640 5643 5645 5647 5647 5647 5644 5643 5640 5637 5633 5628 5623 5620 5615 5611 5606 5602 5597 5594 5590 5586 5581 5577 5573 5569 5564 5559 5555 5551 5546 5542 5536 5531 5526
5619 5622 5626 5629 5631 5633 5634 5634 5634 5632 5630 5627 5623 5619 5614 5609 5605 5600 5594 5588 5583 5578 5574 5569 5563 5557 5551 5547 5541 5536 5531 5527 5522 5517 5511 5505 5499 5494
5605 5610 5614 5619 5621 5622 5623 5623 5622 5620 5618 5614 5609 5605 5599 5594 5589 5584 5578 5572 5564 5559 5554 5544 5541 5531 5525 5520 5513 5508 5504 5501 5497 5493 5490 5485 5480 5474
5597 5602 5606 5609 5611 5612 5613 5612 5610 5608 5604 5601 5595 5589 5586 5581 5574 5567 5559 5551 5543 5533 5532 5518 5516 5507 5500 5494 5490 5489 5487 5485 5482 5478 5474 5469 5463 5457
5592 5600 5602 5603 5603 5603 5603 5601 5598 5595 5592 5589 5585 5577 5571 5565 5557 5547 5538 5530 5520 5514 5511 5504 5495 5493 5485 5480 5477 5476 5474 5471 5467 5463 5459 5454 5448 5442
5595 5597 5598 5597 5597 5596 5593 5590 5589 5587 5583 5578 5571 5564 5556 5547 5537 5528 5520 5513 5504 5496 5494 5491 5481 5479 5473 5468 5466 5463 5460 5456 5453 5449 5444 5439 5434 5430
5593 5593 5592 5591 5590 5588 5586 5585 5580 5576 5571 5565 5557 5549 5539 5529 5521 5514 5506 5498 5491 5482 5480 5476 5470 5470 5463 5458 5455 5451 5446 5442 5438 5434 5430 5426 5421 5417
5590 5589 5588 5587 5584 5582 5579 5574 5570 5566 5560 5552 5543 5533 5525 5517 5511 5503 5494 5486 5482 5476 5472 5469 5461 5460 5460 5449 5445 5440 5435 5430 5427 5422 5416 5411 5407 5404
5587 5586 5583 5580 5576 5573 5569 5566 5561 5555 5547 5538 5530 5522 5515 5508 5502 5494 5487 5480 5474 5468 5464 5462 5456 5451 5447 5445 5439 5431 5425 5421 5416 5411 5405 5400 5395 5391
5583 5580 5576 5573 5569 5566 5561 5556 5549 5542 5534 5525 5517 5511 5505 5500 5494 5487 5481 5473 5466 5461 5456 5452 5448 5443 5439 5434 5430 5423 5416 5410 5404 5401 5395 5389 5384 5380
5576 5573 5569 5565 5561 5556 5550 5544 5537 5529 5522 5514 5507 5501 5496 5491 5486 5480 5474 5467 5458 5451 5446 5442 5438 5434 5428 5423 5420 5413 5408 5402 5393 5389 5384 5377 5373 5367
5570 5566 5561 5556 5551 5546 5540 5534 5526 5519 5511 5504 5498 5493 5488 5483 5478 5473 5467 5461 5453 5446 5437 5433 5429 5424 5419 5412 5408 5404 5397 5391 5385 5379 5375 5367 5362 5359
5562 5557 5552 5547 5541 5536 5530 5523 5516 5509 5501 5495 5490 5484 5479 5474 5469 5464 5459 5454 5447 5440 5433 5425 5419 5415 5410 5403 5399 5391 5387 5381 5373 5369 5364 5358 5351 5350
5554 5549 5543 5538 5532 5526 5520 5513 5506 5498 5491 5486 5481 5476 5471 5466 5461 5456 5451 5446 5440 5433 5426 5420 5414 5409 5403 5396 5384 5380 5377 5370 5363 5357 5353 5351 5344 5339
5546 5540 5535 5529 5523 5517 5510 5503 5495 5488 5482 5478 5473 5468 5463 5458 5453 5448 5442 5437 5432 5425 5419 5412 5406 5401 5397 5392 5381 5368 5368 5363 5358 5351 5347 5344 5340 5335
5537 5531 5525 5519 5513 5507 5500 5493 5485 5478 5473 5469 5464 5459 5455 5450 5445 5440 5434 5429 5424 5419 5413 5405 5399 5393 5387 5383 5378 5368 5355 5355 5350 5345 5342 5337 5335 5332
5528 5522 5516 5510 5503 5497 5489 5482 5474 5467 5463 5460 5456 5451 5446 5442 5436 5430 5425 5419 5414 5410 5406 5399 5391 5384 5377 5373 5368 5361 5352 5343 5342 5339 5335 5333 5331 5326
5519 5513 5507 5500 5493 5486 5478 5470 5462 5456 5452 5450 5447 5443 5438 5433 5428 5421 5415 5410 5406 5401 5398 5392 5384 5377 5370 5365 5360 5354 5347 5339 5333 5330 5325 5324 5323 5322
5511 5505 5498 5491 5483 5475 5466 5458 5450 5444 5442 5440 5437 5434 5430 5425 5419 5412 5406 5401 5397 5393 5389 5385 5378 5371 5363 5358 5352 5346 5340 5333 5330 5325 5318 5311 5309 5305